Regional Weather Roundup
Issued by NWS

Home | Current Version | Previous Version | Text Only | Print | Product List | Glossary On
Versions: 1 2 3 4 5 6 7 8 9 10 11 12 13 14 15 16 17 18 19 20 21 22 23 24 25 26 27 28 29 30 31 32 33 34 35 36 37 38 39 40 41 42 43 44 45 46 47 48 49 50
000
ASUS45 KBOU 020310
RWRCO

WEATHER ROUNDUP FOR COLORADO
NATIONAL WEATHER SERVICE DENVER/BOULDER CO
900 PM MDT WED JUL 01 2015

NOTE: "FAIR" INDICATES FEW OR NO CLOUDS BELOW 12000 FEET WITH NO
SIGNIFICANT WEATHER AND/OR OBSTRUCTIONS TO VISIBILITY.

COZ001>005-013-030-031-020400-
...NORTHWEST COLORADO...

CITY           SKY/WX    TMP DP  RH WIND       PRES   REMARKS
CRAIG          PTCLDY    75  49  39 SE13      30.14F
HAYDEN         MOCLDY    70  45  40 SE13      30.19R
MEEKER         PTCLDY    73  56  54 SE6       30.16R
MOUNT WERNER   NOT AVBL
STEAMBOAT SPGS PTCLDY    65  49  57 W5        30.23R
WALDEN         CLOUDY    59  46  63 W3        30.36S
$$

COZ006>008-011-020400-
...WEST CENTRAL VALLEYS...

CITY           SKY/WX    TMP DP  RH WIND       PRES   REMARKS
GRAND JUNCTION MOCLDY    84  54  35 N3        29.97R
MONTROSE       MOCLDY    83  51  33 W6        30.07R
EAGLE          PTCLDY    73  54  49 W7        30.19F
RIFLE          PTCLDY    84  48  28 N3        30.05R
DELTA          MOCLDY    87  47  25 E5        30.01S
NUCLA          MOCLDY    81  48  32 E3        30.11R
$$

COZ017>023-064>068-020400-
...SOUTHWEST COLORADO...

CITY           SKY/WX    TMP DP  RH WIND       PRES   REMARKS
DURANGO        CLOUDY    73  45  36 SE18G24   30.18R
CORTEZ         CLEAR     79  55  43 CALM      30.07R
PAGOSA SPRINGS CLOUDY    65  48  53 E6        30.30R
TELLURIDE      MOCLDY    73  40  31 E3        30.40R
WOLF CREEK PAS NOT AVBL
$$

COZ009-010-012-014-032>034-037-058>063-020400-
...CENTRAL COLORADO...

CITY           SKY/WX    TMP DP  RH WIND       PRES   REMARKS
ASPEN          MOCLDY    71  48  43 W5        30.27R
BUENA VISTA    CLOUDY    64  51  61 NE12      30.37R
COPPER MTN     MOCLDY    57  41  54 W10       30.65F
BERTHOUD PASS  FAIR      45  36  70 W12       30.70F
COTTONWOOD PAS NOT AVBL
GUNNISON       MOCLDY    73  43  33 E14G22    30.29R
KREMMLING      MOCLDY    72  39  30 NW6       30.28S
LEADVILLE      CLOUDY    55  55 100 S10       30.47F
MONARCH PASS   FOG       46  45  93 NE16      30.74R VSB<1/4
SALIDA         MOCLDY    68  51  55 W6        30.41R
SUNLIGHT       PTCLDY    61  46  59 NE5       30.56S
WILKERSON PASS MOCLDY    48  46  93 SW8       30.62F
$$

COZ069>075-020400-
...SAN LUIS VALLEY/SANGRE DE CRISTO MOUNTAINS...

CITY           SKY/WX    TMP DP  RH WIND       PRES   REMARKS
ALAMOSA        CLOUDY    61  53  75 S7        30.33R
LA VETA PASS   CLOUDY    50  45  81 SE6       30.54S THUNDER
SAGUACHE       CLOUDY    61  52  72 W5        30.38R
$$

COZ035-036-038>040-020400-
...NORTHERN COLORADO FRONT RANGE...

CITY           SKY/WX    TMP DP  RH WIND       PRES   REMARKS
DENVER INTL AP MOCLDY    65  59  81 SE8       30.17S
DMNS CITY PARK   N/A     71  56  58 SE5G13    30.17S
AURORA         MOCLDY    66  56  69 S8        30.20F
FRONT RANGE AP MOCLDY    68  61  77 S8        30.19S
ERIE MUNI ARPT PTCLDY    71  57  61 SE6       30.15S
BOULDER MUN AP PTCLDY    70  55  60 N3        30.16R
CENTENNIAL     PTCLDY    66  57  72 S9        30.20S
BROOMFIELD     MOCLDY    72  55  56 SE7       30.19S
FORT COLLINS   CLOUDY    70  61  73 N6        30.17R
LONGMONT       CLOUDY    72  58  63 CALM      30.17R
$$

COZ041-046-047-076>085-087-088-020400-
...PIKES PEAK/PALMER DIVIDE AND SOUTHERN FOOTHILLS...

CITY           SKY/WX    TMP DP  RH WIND       PRES   REMARKS
COLO. SPRINGS  MOCLDY    66  59  78 SE3       30.26R
A. F. ACADEMY  PTCLDY    61  60  97 N7        30.26S
ELLICOTT       MOCLDY   N/A N/A N/A E7        30.24S
FALCON         MOCLDY    61  56  84 N6        30.30S
FORT CARSON    CLOUDY    63  61  92 NW3       30.22S
LIMON          MOCLDY    62  58  86 E5        30.19F
MONUMENT HILL  PTCLDY    59  55  88 S5        30.31R
TRINIDAD       LGT RAIN  67  60  78 NW9       30.25R
$$

COZ042>045-048>051-090-091-020400-
...NORTHEAST COLORADO...

CITY           SKY/WX    TMP DP  RH WIND       PRES   REMARKS
GREELEY ARPT   CLOUDY    72  63  73 N6        30.14F
AKRON          CLOUDY    69  58  67 SW17G25   30.11R
BURLINGTON     CLOUDY    69  59  70 W21G28    30.12R
WRAY           CLOUDY    78  56  47 SW18      30.04R
STERLING       CLOUDY    73  57  56 W16         N/A
HOLYOKE        CLOUDY    79  61  53 E6        30.01R
FORT MORGAN    CLOUDY    66  58  74 NW12      30.13R
$$

COZ086-089-092>099-020400-
...SOUTHEAST COLORADO...

CITY           SKY/WX    TMP DP  RH WIND       PRES   REMARKS
PUEBLO         CLOUDY    69  64  84 NW8       30.15S
LA JUNTA       RAIN      68  64  87 N13       30.13R
LAMAR          LGT RAIN  69  62  78 N32G52    30.05R
SPRINGFIELD      N/A     80  51  36 E7        30.03R
$$


USA.gov is the U.S. government's official web portal to all federal, state and local government web resources and services.